This demonstration page uses our WeatherBlox Daily Observations layout. Learn more.

Left ArrowRight Arrow

39.92423, -83.80882

Hourly Observations for November 10, 2020

Temp ( °F °C ) Dew Point ( °F °C ) Humidity (%) Winds ( mph kmh ) Pressure ( in mb ) Visibility ( mi km ) Precip ( " mm )
12:56 am 00:56 Clear 62 16.7 53 11.7 73 73 S 7 11 30.09 1019 10 16 N/A
1:56 am 01:56 Clear 61 16.1 53 11.7 75 75 SSE 8 13 30.08 1019 10 16 N/A
2:56 am 02:56 Clear 60 15.6 53 11.7 78 78 S 7 11 30.07 1018 10 16 N/A
3:56 am 03:56 Clear 61 16.1 54 12.2 78 78 S 7 11 30.06 1018 10 16 N/A
4:56 am 04:56 Clear 60 15.6 54 12.2 80 80 S 7 11 30.06 1018 10 16 N/A
5:56 am 05:56 Clear 58 14.4 53 11.7 84 84 S 5 7 30.07 1018 10 16 N/A
6:56 am 06:56 Cloudy 56 13.3 53 11.7 90 90 S 8 13 30.08 1019 10 16 N/A
7:56 am 07:56 Mostly Cloudy 57 13.9 54 12.2 90 90 S 7 11 30.08 1019 10 16 N/A
8:56 am 08:56 Mostly Sunny 63 17.2 55 12.8 76 76 S 8 13 30.06 1018 10 16 N/A
9:56 am 09:56 Mostly Sunny 69 20.6 57 13.9 66 66 S 10 17 30.06 1018 10 16 N/A
10:56 am 10:56 Mostly Cloudy 72 22.2 58 14.4 61 61 S 12 19 30.04 1017 10 16 N/A
11:56 am 11:56 Partly Cloudy 76 24.4 58 14.4 54 54 SSW 13 20 30.01 1016 10 16 N/A
12:56 pm 12:56 Sunny 77 25 58 14.4 52 52 SSW 16 26 29.96 1014 10 16 N/A
1:56 pm 13:56 Mostly Sunny 78 25.6 58 14.4 50 50 S 12 19 29.93 1013 10 16 N/A
2:56 pm 14:56 Mostly Sunny 78 25.6 59 15 52 52 SSW 13 20 29.91 1013 10 16 N/A
3:56 pm 15:56 Mostly Cloudy 76 24.4 59 15 56 56 S 9 15 29.90 1013 10 16 N/A
4:56 pm 16:56 Sunny 75 23.9 59 15 58 58 S 8 13 29.88 1012 10 16 N/A
5:56 pm 17:56 Clear 70 21.1 58 14.4 66 66 SSE 7 11 29.88 1012 10 16 N/A
6:56 pm 18:56 Mostly Cloudy 71 21.7 59 15 66 66 S 8 13 29.88 1012 10 16 N/A
7:56 pm 19:56 Cloudy 71 21.7 59 15 66 66 S 8 13 29.86 1011 10 16 N/A
8:56 pm 20:56 Cloudy 70 21.1 59 15 68 68 S 7 11 29.86 1011 10 16 N/A
9:56 pm 21:56 Cloudy 70 21.1 62 16.7 76 76 SSW 21 33 29.86 1011 9 14 0.00 0.00
10:32 pm 22:32 Cloudy with Light Rain 64 18 64 18 100 100 SSW 8 13 29.87 1012 7 11 N/A
10:56 pm 22:56 Cloudy with Light Rain 64 17.8 64 17.8 100 100 S 12 19 29.86 1011 10 16 N/A
11:35 pm 23:35 Cloudy with Light Rain 64 18 64 18 100 100 S 12 19 29.84 1010 4 6 N/A
11:47 pm 23:47 Cloudy with Light Rain 64 18 64 18 100 100 S 13 20 29.84 1010 5 8 N/A
11:56 pm 23:56 Cloudy with Rain 64 17.8 64 17.8 100 100 SSW 9 15 29.85 1011 5 8 N/A

Powered by AerisWeather